When you browse on this site, cookies collect data to enhance your experience and personalize the content and advertising you see.
Visit our Privacy Policy to learn more. By continuing to use the site, you agree to this use of cookies and data.
  • In Österreich
  • Länderverzeichnis
  • Für 7 Tage
  • Wassertemperatur
  • Satellitenkarten
  • Wetterkarte
  • News
  • Widgets
  • user-avatar
    Anmelden

    Stündliche Wetter San Juan

    Heute, 19 März, Dienstag

    Zeit Temperatur Niederschläge Wind Luftdruck Luftfeuchtigkeit
    00:00 +25°C° 0 mm 4 m/S 762 mmHg 80%
    01:00 +23°C° 0 mm 4 m/S 762 mmHg 81%
    02:00 +23°C° 0 mm 4 m/S 762 mmHg 82%
    03:00 +23°C° 0 mm 4 m/S 761 mmHg 82%
    04:00 +23°C° 0 mm 4 m/S 761 mmHg 83%
    05:00 +23°C° 0 mm 4 m/S 761 mmHg 83%
    06:00 +23°C° 0 mm 4 m/S 762 mmHg 80%
    07:00 +25°C° 0 mm 4 m/S 762 mmHg 76%
    08:00 +26°C° 0 mm 4 m/S 762 mmHg 73%
    09:00 +27°C° 0 mm 5 m/S 763 mmHg 68%
    10:00 +29°C° 0 mm 5 m/S 763 mmHg 62%
    11:00 +30°C° 0 mm 5 m/S 763 mmHg 57%
    12:00 +30°C° 0 mm 6 m/S 763 mmHg 57%
    13:00 +30°C° 0 mm 6 m/S 762 mmHg 57%
    14:00 +32°C° 0 mm 6 m/S 762 mmHg 57%
    15:00 +30°C° 0 mm 6 m/S 761 mmHg 58%
    16:00 +30°C° 0 mm 5 m/S 761 mmHg 59%
    17:00 +29°C° 0 mm 5 m/S 760 mmHg 60%
    18:00 +28°C° 0 mm 5 m/S 761 mmHg 66%
    19:00 +27°C° 0 mm 5 m/S 761 mmHg 73%
    20:00 +25°C° 0 mm 4 m/S 761 mmHg 79%
    21:00 +25°C° 0 mm 4 m/S 761 mmHg 81%
    22:00 +25°C° 0 mm 4 m/S 761 mmHg 83%
    23:00 +25°C° 0 mm 4 m/S 762 mmHg 84%

    Morgen, 20 März, Mittwoch

    Zeit Temperatur Niederschläge Wind Luftdruck Luftfeuchtigkeit
    00:00 +25°C° 0 mm 3 m/S 761 mmHg 85%
    01:00 +24°C° 0 mm 3 m/S 761 mmHg 86%
    02:00 +24°C° 0 mm 3 m/S 761 mmHg 87%
    03:00 +24°C° 0 mm 2 m/S 761 mmHg 87%
    04:00 +24°C° 0 mm 2 m/S 760 mmHg 88%
    05:00 +24°C° 0 mm 2 m/S 760 mmHg 88%
    06:00 +25°C° 0.1 mm 2 m/S 761 mmHg 86%
    07:00 +25°C° 0.1 mm 2 m/S 761 mmHg 83%
    08:00 +26°C° 0.1 mm 2 m/S 761 mmHg 81%
    09:00 +27°C° 0.2 mm 3 m/S 762 mmHg 78%
    10:00 +28°C° 0.2 mm 4 m/S 762 mmHg 74%
    11:00 +29°C° 0.2 mm 4 m/S 762 mmHg 71%
    12:00 +29°C° 0.2 mm 4 m/S 762 mmHg 71%
    13:00 +29°C° 0.2 mm 5 m/S 761 mmHg 70%
    14:00 +30°C° 0.2 mm 5 m/S 760 mmHg 70%
    15:00 +29°C° 0.1 mm 5 m/S 760 mmHg 71%
    16:00 +29°C° 0.1 mm 5 m/S 760 mmHg 71%
    17:00 +29°C° 0.1 mm 5 m/S 759 mmHg 72%
    18:00 +28°C° 0 mm 4 m/S 760 mmHg 76%
    19:00 +27°C° 0 mm 4 m/S 760 mmHg 80%
    20:00 +26°C° 0 mm 4 m/S 761 mmHg 84%
    21:00 +26°C° 0 mm 4 m/S 761 mmHg 85%
    22:00 +26°C° 0 mm 4 m/S 761 mmHg 87%
    23:00 +25°C° 0 mm 3 m/S 761 mmHg 88%

    übermorgen, 21 März, Donnerstag

    Zeit Temperatur Niederschläge Wind Luftdruck Luftfeuchtigkeit
    00:00 +25°C° 0 mm 3 m/S 761 mmHg 88%
    01:00 +25°C° 0 mm 3 m/S 761 mmHg 89%
    02:00 +25°C° 0 mm 3 m/S 760 mmHg 89%
    03:00 +25°C° 0 mm 3 m/S 760 mmHg 89%
    04:00 +25°C° 0 mm 3 m/S 760 mmHg 89%
    05:00 +25°C° 0 mm 3 m/S 760 mmHg 89%
    06:00 +25°C° 0 mm 3 m/S 760 mmHg 87%
    07:00 +26°C° 0 mm 3 m/S 761 mmHg 84%
    08:00 +27°C° 0 mm 3 m/S 761 mmHg 82%
    09:00 +28°C° 0 mm 3 m/S 762 mmHg 71%
    10:00 +30°C° 0 mm 3 m/S 762 mmHg 61%
    11:00 +31°C° 0 mm 3 m/S 762 mmHg 51%
    12:00 +33°C° 0 mm 3 m/S 761 mmHg 48%
    13:00 +33°C° 0 mm 4 m/S 761 mmHg 45%
    14:00 +34°C° 0 mm 4 m/S 760 mmHg 42%
    15:00 +33°C° 0 mm 5 m/S 760 mmHg 46%
    16:00 +33°C° 0 mm 5 m/S 760 mmHg 49%
    17:00 +32°C° 0 mm 5 m/S 759 mmHg 53%
    18:00 +29°C° 0 mm 5 m/S 760 mmHg 60%
    19:00 +28°C° 0 mm 4 m/S 760 mmHg 68%
    20:00 +26°C° 0 mm 4 m/S 761 mmHg 76%
    21:00 +26°C° 0 mm 4 m/S 761 mmHg 78%
    22:00 +26°C° 0 mm 3 m/S 761 mmHg 80%
    23:00 +26°C° 0 mm 3 m/S 761 mmHg 82%

    22 März, Freitag

    Zeit Temperatur Niederschläge Wind Luftdruck Luftfeuchtigkeit
    00:00 +25°C° 0.1 mm 3 m/S 761 mmHg 84%
    01:00 +25°C° 0.1 mm 3 m/S 760 mmHg 85%
    02:00 +25°C° 0.1 mm 3 m/S 760 mmHg 86%
    03:00 +25°C° 0.3 mm 3 m/S 760 mmHg 87%
    04:00 +25°C° 0.3 mm 3 m/S 760 mmHg 87%
    05:00 +26°C° 0.3 mm 3 m/S 760 mmHg 87%
    06:00 +26°C° 0.2 mm 3 m/S 760 mmHg 86%
    07:00 +26°C° 0.2 mm 4 m/S 761 mmHg 85%
    08:00 +26°C° 0.2 mm 4 m/S 762 mmHg 84%
    09:00 +28°C° 0 mm 4 m/S 762 mmHg 78%
    10:00 +29°C° 0 mm 4 m/S 762 mmHg 72%
    11:00 +30°C° 0 mm 5 m/S 762 mmHg 66%
    12:00 +32°C° 0 mm 5 m/S 762 mmHg 64%
    13:00 +32°C° 0 mm 5 m/S 761 mmHg 62%
    14:00 +32°C° 0 mm 5 m/S 761 mmHg 61%
    15:00 +32°C° 0 mm 5 m/S 760 mmHg 62%
    16:00 +32°C° 0 mm 5 m/S 760 mmHg 63%
    17:00 +30°C° 0 mm 5 m/S 760 mmHg 64%
    18:00 +29°C° 0 mm 4 m/S 760 mmHg 69%
    19:00 +28°C° 0 mm 4 m/S 761 mmHg 75%
    20:00 +26°C° 0 mm 3 m/S 761 mmHg 80%
    21:00 +26°C° 0 mm 3 m/S 761 mmHg 81%
    22:00 +26°C° 0 mm 3 m/S 762 mmHg 83%
    23:00 +25°C° 0 mm 3 m/S 762 mmHg 84%

    23 März, Samstag

    Zeit Temperatur Niederschläge Wind Luftdruck Luftfeuchtigkeit
    00:00 +25°C° 0 mm 3 m/S 762 mmHg 84%
    01:00 +25°C° 0 mm 3 m/S 761 mmHg 85%
    02:00 +25°C° 0 mm 3 m/S 761 mmHg 85%
    03:00 +24°C° 0 mm 3 m/S 761 mmHg 85%
    04:00 +24°C° 0 mm 3 m/S 761 mmHg 85%
    05:00 +24°C° 0 mm 3 m/S 761 mmHg 85%
    06:00 +25°C° 0 mm 3 m/S 761 mmHg 82%
    07:00 +26°C° 0 mm 3 m/S 762 mmHg 78%
    08:00 +27°C° 0 mm 3 m/S 763 mmHg 74%
    09:00 +28°C° 0 mm 4 m/S 763 mmHg 68%
    10:00 +29°C° 0 mm 4 m/S 763 mmHg 62%
    11:00 +32°C° 0 mm 5 m/S 763 mmHg 56%
    12:00 +32°C° 0 mm 5 m/S 762 mmHg 55%
    13:00 +32°C° 0 mm 5 m/S 762 mmHg 55%
    14:00 +33°C° 0 mm 5 m/S 761 mmHg 54%
    15:00 +32°C° 0 mm 5 m/S 761 mmHg 56%
    16:00 +30°C° 0 mm 5 m/S 761 mmHg 59%
    17:00 +30°C° 0 mm 5 m/S 761 mmHg 61%
    18:00 +28°C° 0 mm 5 m/S 761 mmHg 67%
    19:00 +27°C° 0 mm 5 m/S 762 mmHg 73%
    20:00 +26°C° 0 mm 4 m/S 762 mmHg 79%
    21:00 +26°C° 0 mm 4 m/S 762 mmHg 80%
    22:00 +25°C° 0 mm 4 m/S 762 mmHg 82%
    23:00 +25°C° 0 mm 4 m/S 762 mmHg 83%

    24 März, Sonntag

    Zeit Temperatur Niederschläge Wind Luftdruck Luftfeuchtigkeit
    00:00 +25°C° 0 mm 4 m/S 762 mmHg 84%
    01:00 +25°C° 0 mm 4 m/S 762 mmHg 85%
    02:00 +25°C° 0 mm 4 m/S 761 mmHg 86%
    03:00 +25°C° 0.1 mm 4 m/S 761 mmHg 86%
    04:00 +25°C° 0.1 mm 4 m/S 761 mmHg 86%
    05:00 +25°C° 0.1 mm 4 m/S 761 mmHg 86%
    06:00 +26°C° 0.3 mm 5 m/S 762 mmHg 84%
    07:00 +27°C° 0.3 mm 5 m/S 762 mmHg 82%
    08:00 +27°C° 0.3 mm 5 m/S 763 mmHg 80%
    09:00 +28°C° 0.2 mm 5 m/S 763 mmHg 76%
    10:00 +29°C° 0.2 mm 6 m/S 763 mmHg 71%
    11:00 +29°C° 0.2 mm 6 m/S 763 mmHg 67%
    12:00 +29°C° 0 mm 6 m/S 762 mmHg 66%
    13:00 +29°C° 0 mm 6 m/S 762 mmHg 66%
    14:00 +29°C° 0 mm 6 m/S 761 mmHg 66%
    15:00 +29°C° 0 mm 5 m/S 761 mmHg 69%
    16:00 +28°C° 0 mm 5 m/S 761 mmHg 72%
    17:00 +28°C° 0 mm 5 m/S 760 mmHg 75%
    18:00 +28°C° 0 mm 5 m/S 761 mmHg 78%
    19:00 +27°C° 0 mm 4 m/S 761 mmHg 81%
    20:00 +27°C° 0 mm 4 m/S 761 mmHg 83%
    21:00 +26°C° 0.1 mm 4 m/S 761 mmHg 84%
    22:00 +26°C° 0.1 mm 4 m/S 761 mmHg 85%
    23:00 +26°C° 0.1 mm 5 m/S 761 mmHg 86%
    Mehr zeigen